Location: Dilsberg
(49.3983°N, 8.8354°E)
Time: 20:18:35
(UTC+00:00)

Cosmos 1743 Rocket - Pass Details

Date: 19 May 2025
Orbit: 598 x 626 km, 82.6° (Epoch: 19 June)

Event Time Altitude Azimuth Distance (km) Brightness Sun altitude
Rises 23:20:22 0° 346° (NNW) 2,924 8.4 -20.6°
Reaches altitude 10° 23:22:38 10° 342° (NNW) 2,010 7.2 -20.6°
Maximum altitude 23:26:59 56° 265° (W) 748 3.8 -20.6°
Enters shadow 23:27:51 47° 223° (SW) 832 3.8 -20.6°
